Index of /20260429/WXO-DD/model_rdps/10km/06/027
Name Last modified Size Description
Parent Directory -
20260429T06Z_MSC_RDPS_AbsoluteVorticity_IsbL-0250_RLatLon0.09_PT027H.grib2 2026-04-29 08:48 630K
20260429T06Z_MSC_RDPS_AbsoluteVorticity_IsbL-0500_RLatLon0.09_PT027H.grib2 2026-04-29 08:48 577K
20260429T06Z_MSC_RDPS_AbsoluteVorticity_IsbL-0700_RLatLon0.09_PT027H.grib2 2026-04-29 08:48 626K
20260429T06Z_MSC_RDPS_AbsoluteVorticity_IsbL-0850_RLatLon0.09_PT027H.grib2 2026-04-29 08:48 773K
20260429T06Z_MSC_RDPS_AirTemp_AGL-120m_RLatLon0.09_PT027H.grib2 2026-04-29 08:48 390K
20260429T06Z_MSC_RDPS_AirTemp_AGL-2m_RLatLon0.09_PT027H.grib2 2026-04-29 08:48 632K
20260429T06Z_MSC_RDPS_AirTemp_AGL-40m_RLatLon0.09_PT027H.grib2 2026-04-29 08:48 407K
20260429T06Z_MSC_RDPS_AirTemp_AGL-80m_RLatLon0.09_PT027H.grib2 2026-04-29 08:48 397K
20260429T06Z_MSC_RDPS_AirTemp_IsbL-0001_RLatLon0.09_PT027H.grib2 2026-04-29 08:48 300K
20260429T06Z_MSC_RDPS_AirTemp_IsbL-0005_RLatLon0.09_PT027H.grib2 2026-04-29 08:48 294K
20260429T06Z_MSC_RDPS_AirTemp_IsbL-0010_RLatLon0.09_PT027H.grib2 2026-04-29 08:48 305K
20260429T06Z_MSC_RDPS_AirTemp_IsbL-0020_RLatLon0.09_PT027H.grib2 2026-04-29 08:48 316K
20260429T06Z_MSC_RDPS_AirTemp_IsbL-0030_RLatLon0.09_PT027H.grib2 2026-04-29 08:48 340K
20260429T06Z_MSC_RDPS_AirTemp_IsbL-0050_RLatLon0.09_PT027H.grib2 2026-04-29 08:48 315K
20260429T06Z_MSC_RDPS_AirTemp_IsbL-0100_RLatLon0.09_PT027H.grib2 2026-04-29 08:48 429K
20260429T06Z_MSC_RDPS_AirTemp_IsbL-0150_RLatLon0.09_PT027H.grib2 2026-04-29 08:48 428K
20260429T06Z_MSC_RDPS_AirTemp_IsbL-0175_RLatLon0.09_PT027H.grib2 2026-04-29 08:48 416K
20260429T06Z_MSC_RDPS_AirTemp_IsbL-0200_RLatLon0.09_PT027H.grib2 2026-04-29 08:48 418K
20260429T06Z_MSC_RDPS_AirTemp_IsbL-0225_RLatLon0.09_PT027H.grib2 2026-04-29 08:48 420K
20260429T06Z_MSC_RDPS_AirTemp_IsbL-0250_RLatLon0.09_PT027H.grib2 2026-04-29 08:48 431K
20260429T06Z_MSC_RDPS_AirTemp_IsbL-0275_RLatLon0.09_PT027H.grib2 2026-04-29 08:48 409K
20260429T06Z_MSC_RDPS_AirTemp_IsbL-0300_RLatLon0.09_PT027H.grib2 2026-04-29 08:48 415K
20260429T06Z_MSC_RDPS_AirTemp_IsbL-0350_RLatLon0.09_PT027H.grib2 2026-04-29 08:48 427K
20260429T06Z_MSC_RDPS_AirTemp_IsbL-0400_RLatLon0.09_PT027H.grib2 2026-04-29 08:48 427K
20260429T06Z_MSC_RDPS_AirTemp_IsbL-0450_RLatLon0.09_PT027H.grib2 2026-04-29 08:48 434K
20260429T06Z_MSC_RDPS_AirTemp_IsbL-0500_RLatLon0.09_PT027H.grib2 2026-04-29 08:48 409K
20260429T06Z_MSC_RDPS_AirTemp_IsbL-0550_RLatLon0.09_PT027H.grib2 2026-04-29 08:48 425K
20260429T06Z_MSC_RDPS_AirTemp_IsbL-0600_RLatLon0.09_PT027H.grib2 2026-04-29 08:48 447K
20260429T06Z_MSC_RDPS_AirTemp_IsbL-0650_RLatLon0.09_PT027H.grib2 2026-04-29 08:48 463K
20260429T06Z_MSC_RDPS_AirTemp_IsbL-0700_RLatLon0.09_PT027H.grib2 2026-04-29 08:48 377K
20260429T06Z_MSC_RDPS_AirTemp_IsbL-0750_RLatLon0.09_PT027H.grib2 2026-04-29 08:48 408K
20260429T06Z_MSC_RDPS_AirTemp_IsbL-0800_RLatLon0.09_PT027H.grib2 2026-04-29 08:48 449K
20260429T06Z_MSC_RDPS_AirTemp_IsbL-0850_RLatLon0.09_PT027H.grib2 2026-04-29 08:48 499K
20260429T06Z_MSC_RDPS_AirTemp_IsbL-0875_RLatLon0.09_PT027H.grib2 2026-04-29 08:48 519K
20260429T06Z_MSC_RDPS_AirTemp_IsbL-0900_RLatLon0.09_PT027H.grib2 2026-04-29 08:48 527K
20260429T06Z_MSC_RDPS_AirTemp_IsbL-0925_RLatLon0.09_PT027H.grib2 2026-04-29 08:48 524K
20260429T06Z_MSC_RDPS_AirTemp_IsbL-0950_RLatLon0.09_PT027H.grib2 2026-04-29 08:48 525K
20260429T06Z_MSC_RDPS_AirTemp_IsbL-0970_RLatLon0.09_PT027H.grib2 2026-04-29 08:48 518K
20260429T06Z_MSC_RDPS_AirTemp_IsbL-0985_RLatLon0.09_PT027H.grib2 2026-04-29 08:48 503K
20260429T06Z_MSC_RDPS_AirTemp_IsbL-1000_RLatLon0.09_PT027H.grib2 2026-04-29 08:48 486K
20260429T06Z_MSC_RDPS_AirTemp_IsbL-1015_RLatLon0.09_PT027H.grib2 2026-04-29 08:48 485K
20260429T06Z_MSC_RDPS_Albedo_Sfc_RLatLon0.09_PT027H.grib2 2026-04-29 08:48 162K
20260429T06Z_MSC_RDPS_CAPE_Sfc_RLatLon0.09_PT027H.grib2 2026-04-29 08:48 1.6M
20260429T06Z_MSC_RDPS_CIN_Sfc_RLatLon0.09_PT027H.grib2 2026-04-29 08:48 1.1M
20260429T06Z_MSC_RDPS_CloudWater_EAtm_RLatLon0.09_PT027H.grib2 2026-04-29 08:48 218K
20260429T06Z_MSC_RDPS_ConvectivePrecip-Accum_Sfc_RLatLon0.09_PT027H.grib2 2026-04-29 08:48 813K
20260429T06Z_MSC_RDPS_DewPointDepression_AGL-2m_RLatLon0.09_PT027H.grib2 2026-04-29 08:48 391K
20260429T06Z_MSC_RDPS_DewPointDepression_IsbL-0001_RLatLon0.09_PT027H.grib2 2026-04-29 08:48 193
20260429T06Z_MSC_RDPS_DewPointDepression_IsbL-0005_RLatLon0.09_PT027H.grib2 2026-04-29 08:48 193
20260429T06Z_MSC_RDPS_DewPointDepression_IsbL-0010_RLatLon0.09_PT027H.grib2 2026-04-29 08:48 193
20260429T06Z_MSC_RDPS_DewPointDepression_IsbL-0020_RLatLon0.09_PT027H.grib2 2026-04-29 08:48 193
20260429T06Z_MSC_RDPS_DewPointDepression_IsbL-0030_RLatLon0.09_PT027H.grib2 2026-04-29 08:48 193
20260429T06Z_MSC_RDPS_DewPointDepression_IsbL-0050_RLatLon0.09_PT027H.grib2 2026-04-29 08:48 84K
20260429T06Z_MSC_RDPS_DewPointDepression_IsbL-0100_RLatLon0.09_PT027H.grib2 2026-04-29 08:48 132K
20260429T06Z_MSC_RDPS_DewPointDepression_IsbL-0150_RLatLon0.09_PT027H.grib2 2026-04-29 08:48 149K
20260429T06Z_MSC_RDPS_DewPointDepression_IsbL-0175_RLatLon0.09_PT027H.grib2 2026-04-29 08:48 178K
20260429T06Z_MSC_RDPS_DewPointDepression_IsbL-0200_RLatLon0.09_PT027H.grib2 2026-04-29 08:48 217K
20260429T06Z_MSC_RDPS_DewPointDepression_IsbL-0225_RLatLon0.09_PT027H.grib2 2026-04-29 08:48 265K
20260429T06Z_MSC_RDPS_DewPointDepression_IsbL-0250_RLatLon0.09_PT027H.grib2 2026-04-29 08:48 305K
20260429T06Z_MSC_RDPS_DewPointDepression_IsbL-0275_RLatLon0.09_PT027H.grib2 2026-04-29 08:48 308K
20260429T06Z_MSC_RDPS_DewPointDepression_IsbL-0300_RLatLon0.09_PT027H.grib2 2026-04-29 08:48 330K
20260429T06Z_MSC_RDPS_DewPointDepression_IsbL-0350_RLatLon0.09_PT027H.grib2 2026-04-29 08:48 331K
20260429T06Z_MSC_RDPS_DewPointDepression_IsbL-0400_RLatLon0.09_PT027H.grib2 2026-04-29 08:48 338K
20260429T06Z_MSC_RDPS_DewPointDepression_IsbL-0450_RLatLon0.09_PT027H.grib2 2026-04-29 08:48 345K
20260429T06Z_MSC_RDPS_DewPointDepression_IsbL-0500_RLatLon0.09_PT027H.grib2 2026-04-29 08:48 351K
20260429T06Z_MSC_RDPS_DewPointDepression_IsbL-0550_RLatLon0.09_PT027H.grib2 2026-04-29 08:48 361K
20260429T06Z_MSC_RDPS_DewPointDepression_IsbL-0600_RLatLon0.09_PT027H.grib2 2026-04-29 08:48 374K
20260429T06Z_MSC_RDPS_DewPointDepression_IsbL-0650_RLatLon0.09_PT027H.grib2 2026-04-29 08:48 384K
20260429T06Z_MSC_RDPS_DewPointDepression_IsbL-0700_RLatLon0.09_PT027H.grib2 2026-04-29 08:48 394K
20260429T06Z_MSC_RDPS_DewPointDepression_IsbL-0750_RLatLon0.09_PT027H.grib2 2026-04-29 08:48 411K
20260429T06Z_MSC_RDPS_DewPointDepression_IsbL-0800_RLatLon0.09_PT027H.grib2 2026-04-29 08:48 434K
20260429T06Z_MSC_RDPS_DewPointDepression_IsbL-0850_RLatLon0.09_PT027H.grib2 2026-04-29 08:48 464K
20260429T06Z_MSC_RDPS_DewPointDepression_IsbL-0875_RLatLon0.09_PT027H.grib2 2026-04-29 08:48 468K
20260429T06Z_MSC_RDPS_DewPointDepression_IsbL-0900_RLatLon0.09_PT027H.grib2 2026-04-29 08:48 459K
20260429T06Z_MSC_RDPS_DewPointDepression_IsbL-0925_RLatLon0.09_PT027H.grib2 2026-04-29 08:48 445K
20260429T06Z_MSC_RDPS_DewPointDepression_IsbL-0950_RLatLon0.09_PT027H.grib2 2026-04-29 08:48 442K
20260429T06Z_MSC_RDPS_DewPointDepression_IsbL-0970_RLatLon0.09_PT027H.grib2 2026-04-29 08:48 434K
20260429T06Z_MSC_RDPS_DewPointDepression_IsbL-0985_RLatLon0.09_PT027H.grib2 2026-04-29 08:48 426K
20260429T06Z_MSC_RDPS_DewPointDepression_IsbL-1000_RLatLon0.09_PT027H.grib2 2026-04-29 08:48 421K
20260429T06Z_MSC_RDPS_DewPointDepression_IsbL-1015_RLatLon0.09_PT027H.grib2 2026-04-29 08:48 411K
20260429T06Z_MSC_RDPS_DewPoint_AGL-2m_RLatLon0.09_PT027H.grib2 2026-04-29 08:48 308K
20260429T06Z_MSC_RDPS_DownwardLongwaveRadiationFlux-Accum_Sfc_RLatLon0.09_PT027H.grib2 2026-04-29 08:48 442K
20260429T06Z_MSC_RDPS_DownwardShortwaveRadiationFlux-Accum_NTAtm_RLatLon0.09_PT027H.grib2 2026-04-29 08:48 143K
20260429T06Z_MSC_RDPS_DownwardShortwaveRadiationFlux-Accum_Sfc_RLatLon0.09_PT027H.grib2 2026-04-29 08:48 632K
20260429T06Z_MSC_RDPS_FreezingRain-Accum1h_Sfc_RLatLon0.09_PT027H.grib2 2026-04-29 08:48 38K
20260429T06Z_MSC_RDPS_FreezingRain-Accum3h_Sfc_RLatLon0.09_PT027H.grib2 2026-04-29 08:48 42K
20260429T06Z_MSC_RDPS_FreezingRain-Accum_Sfc_RLatLon0.09_PT027H.grib2 2026-04-29 08:48 123K
20260429T06Z_MSC_RDPS_GeopotentialHeight_IsbL-0001_RLatLon0.09_PT027H.grib2 2026-04-29 08:48 238K
20260429T06Z_MSC_RDPS_GeopotentialHeight_IsbL-0005_RLatLon0.09_PT027H.grib2 2026-04-29 08:48 337K
20260429T06Z_MSC_RDPS_GeopotentialHeight_IsbL-0010_RLatLon0.09_PT027H.grib2 2026-04-29 08:48 305K
20260429T06Z_MSC_RDPS_GeopotentialHeight_IsbL-0020_RLatLon0.09_PT027H.grib2 2026-04-29 08:48 304K
20260429T06Z_MSC_RDPS_GeopotentialHeight_IsbL-0030_RLatLon0.09_PT027H.grib2 2026-04-29 08:48 304K
20260429T06Z_MSC_RDPS_GeopotentialHeight_IsbL-0050_RLatLon0.09_PT027H.grib2 2026-04-29 08:48 307K
20260429T06Z_MSC_RDPS_GeopotentialHeight_IsbL-0100_RLatLon0.09_PT027H.grib2 2026-04-29 08:48 285K
20260429T06Z_MSC_RDPS_GeopotentialHeight_IsbL-0150_RLatLon0.09_PT027H.grib2 2026-04-29 08:48 228K
20260429T06Z_MSC_RDPS_GeopotentialHeight_IsbL-0175_RLatLon0.09_PT027H.grib2 2026-04-29 08:48 231K
20260429T06Z_MSC_RDPS_GeopotentialHeight_IsbL-0200_RLatLon0.09_PT027H.grib2 2026-04-29 08:48 263K
20260429T06Z_MSC_RDPS_GeopotentialHeight_IsbL-0225_RLatLon0.09_PT027H.grib2 2026-04-29 08:48 266K
20260429T06Z_MSC_RDPS_GeopotentialHeight_IsbL-0250_RLatLon0.09_PT027H.grib2 2026-04-29 08:48 267K
20260429T06Z_MSC_RDPS_GeopotentialHeight_IsbL-0275_RLatLon0.09_PT027H.grib2 2026-04-29 08:48 266K
20260429T06Z_MSC_RDPS_GeopotentialHeight_IsbL-0300_RLatLon0.09_PT027H.grib2 2026-04-29 08:48 235K
20260429T06Z_MSC_RDPS_GeopotentialHeight_IsbL-0350_RLatLon0.09_PT027H.grib2 2026-04-29 08:48 231K
20260429T06Z_MSC_RDPS_GeopotentialHeight_IsbL-0400_RLatLon0.09_PT027H.grib2 2026-04-29 08:48 228K
20260429T06Z_MSC_RDPS_GeopotentialHeight_IsbL-0450_RLatLon0.09_PT027H.grib2 2026-04-29 08:48 296K
20260429T06Z_MSC_RDPS_GeopotentialHeight_IsbL-0500_RLatLon0.09_PT027H.grib2 2026-04-29 08:48 290K
20260429T06Z_MSC_RDPS_GeopotentialHeight_IsbL-0550_RLatLon0.09_PT027H.grib2 2026-04-29 08:48 286K
20260429T06Z_MSC_RDPS_GeopotentialHeight_IsbL-0600_RLatLon0.09_PT027H.grib2 2026-04-29 08:48 284K
20260429T06Z_MSC_RDPS_GeopotentialHeight_IsbL-0650_RLatLon0.09_PT027H.grib2 2026-04-29 08:48 252K
20260429T06Z_MSC_RDPS_GeopotentialHeight_IsbL-0700_RLatLon0.09_PT027H.grib2 2026-04-29 08:48 332K
20260429T06Z_MSC_RDPS_GeopotentialHeight_IsbL-0750_RLatLon0.09_PT027H.grib2 2026-04-29 08:48 335K
20260429T06Z_MSC_RDPS_GeopotentialHeight_IsbL-0800_RLatLon0.09_PT027H.grib2 2026-04-29 08:48 342K
20260429T06Z_MSC_RDPS_GeopotentialHeight_IsbL-0850_RLatLon0.09_PT027H.grib2 2026-04-29 08:48 384K
20260429T06Z_MSC_RDPS_GeopotentialHeight_IsbL-0875_RLatLon0.09_PT027H.grib2 2026-04-29 08:48 388K
20260429T06Z_MSC_RDPS_GeopotentialHeight_IsbL-0900_RLatLon0.09_PT027H.grib2 2026-04-29 08:48 392K
20260429T06Z_MSC_RDPS_GeopotentialHeight_IsbL-0925_RLatLon0.09_PT027H.grib2 2026-04-29 08:48 395K
20260429T06Z_MSC_RDPS_GeopotentialHeight_IsbL-0950_RLatLon0.09_PT027H.grib2 2026-04-29 08:48 400K
20260429T06Z_MSC_RDPS_GeopotentialHeight_IsbL-0970_RLatLon0.09_PT027H.grib2 2026-04-29 08:48 405K
20260429T06Z_MSC_RDPS_GeopotentialHeight_IsbL-0985_RLatLon0.09_PT027H.grib2 2026-04-29 08:48 414K
20260429T06Z_MSC_RDPS_GeopotentialHeight_IsbL-1000_RLatLon0.09_PT027H.grib2 2026-04-29 08:48 425K
20260429T06Z_MSC_RDPS_GeopotentialHeight_IsbL-1015_RLatLon0.09_PT027H.grib2 2026-04-29 08:48 440K
20260429T06Z_MSC_RDPS_Humidex_Sfc_RLatLon0.09_PT027H.grib2 2026-04-29 08:48 2.4M
20260429T06Z_MSC_RDPS_IcePellets-Accum1h_Sfc_RLatLon0.09_PT027H.grib2 2026-04-29 08:48 1.3K
20260429T06Z_MSC_RDPS_IcePellets-Accum3h_Sfc_RLatLon0.09_PT027H.grib2 2026-04-29 08:48 2.6K
20260429T06Z_MSC_RDPS_IcePellets-Accum_Sfc_RLatLon0.09_PT027H.grib2 2026-04-29 08:48 15K
20260429T06Z_MSC_RDPS_KIndex_Sfc_RLatLon0.09_PT027H.grib2 2026-04-29 08:48 2.4M
20260429T06Z_MSC_RDPS_LatentHeatNetFlux_Sfc_RLatLon0.09_PT027H.grib2 2026-04-29 08:48 307K
20260429T06Z_MSC_RDPS_LiftedIndex-MU-VT_IsbL-0500_RLatLon0.09_PT027H.grib2 2026-04-29 08:48 2.4M
20260429T06Z_MSC_RDPS_NetLongwaveRadiationFlux-Accum_Sfc_RLatLon0.09_PT027H.grib2 2026-04-29 08:48 588K
20260429T06Z_MSC_RDPS_NetShortwaveRadiationFlux-Accum_Sfc_RLatLon0.09_PT027H.grib2 2026-04-29 08:48 632K
20260429T06Z_MSC_RDPS_PlanetaryBoundaryLayerHeight_Sfc_RLatLon0.09_PT027H.grib2 2026-04-29 08:48 1.1M
20260429T06Z_MSC_RDPS_Precip-Accum1h_Sfc_RLatLon0.09_PT027H.grib2 2026-04-29 08:48 1.3M
20260429T06Z_MSC_RDPS_Precip-Accum3h_Sfc_RLatLon0.09_PT027H.grib2 2026-04-29 08:48 1.3M
20260429T06Z_MSC_RDPS_Precip-Accum_Sfc_RLatLon0.09_PT027H.grib2 2026-04-29 08:48 1.8M
20260429T06Z_MSC_RDPS_PrecipRate_Sfc_RLatLon0.09_PT027H.grib2 2026-04-29 08:48 179K
20260429T06Z_MSC_RDPS_PrecipType-Instant_Sfc_RLatLon0.09_PT027H.grib2 2026-04-29 08:48 569K
20260429T06Z_MSC_RDPS_Pressure-Trend3h_Sfc_RLatLon0.09_PT027H.grib2 2026-04-29 08:48 1.2M
20260429T06Z_MSC_RDPS_Pressure_MSL_RLatLon0.09_PT027H.grib2 2026-04-29 08:48 291K
20260429T06Z_MSC_RDPS_Pressure_PVU-1.5_RLatLon0.09_PT027H.grib2 2026-04-29 08:48 2.3M
20260429T06Z_MSC_RDPS_Pressure_PVU-1_RLatLon0.09_PT027H.grib2 2026-04-29 08:48 2.4M
20260429T06Z_MSC_RDPS_Pressure_PVU-2_RLatLon0.09_PT027H.grib2 2026-04-29 08:48 2.4M
20260429T06Z_MSC_RDPS_Pressure_Sfc_RLatLon0.09_PT027H.grib2 2026-04-29 08:48 500K
20260429T06Z_MSC_RDPS_RadiativeTemp_Sfc_RLatLon0.09_PT027H.grib2 2026-04-29 08:48 305K
20260429T06Z_MSC_RDPS_Rain-Accum1h_Sfc_RLatLon0.09_PT027H.grib2 2026-04-29 08:48 609K
20260429T06Z_MSC_RDPS_Rain-Accum3h_Sfc_RLatLon0.09_PT027H.grib2 2026-04-29 08:48 633K
20260429T06Z_MSC_RDPS_Rain-Accum_Sfc_RLatLon0.09_PT027H.grib2 2026-04-29 08:48 1.4M
20260429T06Z_MSC_RDPS_RelativeHumidity_AGL-2m_RLatLon0.09_PT027H.grib2 2026-04-29 08:48 1.0M
20260429T06Z_MSC_RDPS_RelativeHumidity_IsbL-0010_RLatLon0.09_PT027H.grib2 2026-04-29 08:48 644K
20260429T06Z_MSC_RDPS_RelativeHumidity_IsbL-0020_RLatLon0.09_PT027H.grib2 2026-04-29 08:48 688K
20260429T06Z_MSC_RDPS_RelativeHumidity_IsbL-0030_RLatLon0.09_PT027H.grib2 2026-04-29 08:48 606K
20260429T06Z_MSC_RDPS_RelativeHumidity_IsbL-0050_RLatLon0.09_PT027H.grib2 2026-04-29 08:48 371K
20260429T06Z_MSC_RDPS_RelativeHumidity_IsbL-0100_RLatLon0.09_PT027H.grib2 2026-04-29 08:48 286K
20260429T06Z_MSC_RDPS_RelativeHumidity_IsbL-0150_RLatLon0.09_PT027H.grib2 2026-04-29 08:48 409K
20260429T06Z_MSC_RDPS_RelativeHumidity_IsbL-0175_RLatLon0.09_PT027H.grib2 2026-04-29 08:48 478K
20260429T06Z_MSC_RDPS_RelativeHumidity_IsbL-0200_RLatLon0.09_PT027H.grib2 2026-04-29 08:48 554K
20260429T06Z_MSC_RDPS_RelativeHumidity_IsbL-0225_RLatLon0.09_PT027H.grib2 2026-04-29 08:48 627K
20260429T06Z_MSC_RDPS_RelativeHumidity_IsbL-0250_RLatLon0.09_PT027H.grib2 2026-04-29 08:48 705K
20260429T06Z_MSC_RDPS_RelativeHumidity_IsbL-0275_RLatLon0.09_PT027H.grib2 2026-04-29 08:48 730K
20260429T06Z_MSC_RDPS_RelativeHumidity_IsbL-0300_RLatLon0.09_PT027H.grib2 2026-04-29 08:48 776K
20260429T06Z_MSC_RDPS_RelativeHumidity_IsbL-0350_RLatLon0.09_PT027H.grib2 2026-04-29 08:48 790K
20260429T06Z_MSC_RDPS_RelativeHumidity_IsbL-0400_RLatLon0.09_PT027H.grib2 2026-04-29 08:48 797K
20260429T06Z_MSC_RDPS_RelativeHumidity_IsbL-0450_RLatLon0.09_PT027H.grib2 2026-04-29 08:48 802K
20260429T06Z_MSC_RDPS_RelativeHumidity_IsbL-0500_RLatLon0.09_PT027H.grib2 2026-04-29 08:48 809K
20260429T06Z_MSC_RDPS_RelativeHumidity_IsbL-0550_RLatLon0.09_PT027H.grib2 2026-04-29 08:48 823K
20260429T06Z_MSC_RDPS_RelativeHumidity_IsbL-0600_RLatLon0.09_PT027H.grib2 2026-04-29 08:48 846K
20260429T06Z_MSC_RDPS_RelativeHumidity_IsbL-0650_RLatLon0.09_PT027H.grib2 2026-04-29 08:48 863K
20260429T06Z_MSC_RDPS_RelativeHumidity_IsbL-0700_RLatLon0.09_PT027H.grib2 2026-04-29 08:48 884K
20260429T06Z_MSC_RDPS_RelativeHumidity_IsbL-0750_RLatLon0.09_PT027H.grib2 2026-04-29 08:48 930K
20260429T06Z_MSC_RDPS_RelativeHumidity_IsbL-0800_RLatLon0.09_PT027H.grib2 2026-04-29 08:48 1.0M
20260429T06Z_MSC_RDPS_RelativeHumidity_IsbL-0850_RLatLon0.09_PT027H.grib2 2026-04-29 08:48 1.0M
20260429T06Z_MSC_RDPS_RelativeHumidity_IsbL-0875_RLatLon0.09_PT027H.grib2 2026-04-29 08:48 1.0M
20260429T06Z_MSC_RDPS_RelativeHumidity_IsbL-0900_RLatLon0.09_PT027H.grib2 2026-04-29 08:48 1.1M
20260429T06Z_MSC_RDPS_RelativeHumidity_IsbL-0925_RLatLon0.09_PT027H.grib2 2026-04-29 08:48 1.1M
20260429T06Z_MSC_RDPS_RelativeHumidity_IsbL-0950_RLatLon0.09_PT027H.grib2 2026-04-29 08:48 1.1M
20260429T06Z_MSC_RDPS_RelativeHumidity_IsbL-0970_RLatLon0.09_PT027H.grib2 2026-04-29 08:48 1.1M
20260429T06Z_MSC_RDPS_RelativeHumidity_IsbL-0985_RLatLon0.09_PT027H.grib2 2026-04-29 08:48 1.0M
20260429T06Z_MSC_RDPS_RelativeHumidity_IsbL-1000_RLatLon0.09_PT027H.grib2 2026-04-29 08:48 1.0M
20260429T06Z_MSC_RDPS_RelativeHumidity_IsbL-1015_RLatLon0.09_PT027H.grib2 2026-04-29 08:48 1.0M
20260429T06Z_MSC_RDPS_Runoff-Accum_Sfc_RLatLon0.09_PT027H.grib2 2026-04-29 08:48 50K
20260429T06Z_MSC_RDPS_SWEATIndex_Sfc_RLatLon0.09_PT027H.grib2 2026-04-29 08:48 2.4M
20260429T06Z_MSC_RDPS_SeeingIndex_EAtm_RLatLon0.09_PT027H.grib2 2026-04-29 08:48 1.0M
20260429T06Z_MSC_RDPS_SensibleHeatNetFlux_Sfc_RLatLon0.09_PT027H.grib2 2026-04-29 08:48 286K
20260429T06Z_MSC_RDPS_ShowalterIndex_IsbL-0500_RLatLon0.09_PT027H.grib2 2026-04-29 08:48 2.6M
20260429T06Z_MSC_RDPS_SkyTransparencyIndex_EAtm_RLatLon0.09_PT027H.grib2 2026-04-29 08:48 683K
20260429T06Z_MSC_RDPS_Snow-Accum1h_Sfc_RLatLon0.09_PT027H.grib2 2026-04-29 08:48 372K
20260429T06Z_MSC_RDPS_Snow-Accum3h_Sfc_RLatLon0.09_PT027H.grib2 2026-04-29 08:48 387K
20260429T06Z_MSC_RDPS_Snow-Accum_Sfc_RLatLon0.09_PT027H.grib2 2026-04-29 08:48 702K
20260429T06Z_MSC_RDPS_SnowDensity_Sfc_RLatLon0.09_PT027H.grib2 2026-04-29 08:48 176K
20260429T06Z_MSC_RDPS_SnowDepth_Sfc_RLatLon0.09_PT027H.grib2 2026-04-29 08:48 684K
20260429T06Z_MSC_RDPS_SoilTemp_DBS-0to10cm_RLatLon0.09_PT027H.grib2 2026-04-29 08:48 223K
20260429T06Z_MSC_RDPS_SoilTemp_Sfc_RLatLon0.09_PT027H.grib2 2026-04-29 08:48 266K
20260429T06Z_MSC_RDPS_SoilVolumetricIceContent_Sfc_RLatLon0.09_PT027H.grib2 2026-04-29 08:48 164K
20260429T06Z_MSC_RDPS_SoilVolumetricWaterContent_DBS-0to10cm_RLatLon0.09_PT027H.grib2 2026-04-29 08:48 266K
20260429T06Z_MSC_RDPS_SoilVolumetricWaterContent_DBS-0to1cm_RLatLon0.09_PT027H.grib2 2026-04-29 08:48 334K
20260429T06Z_MSC_RDPS_SpecificHumidity_AGL-120m_RLatLon0.09_PT027H.grib2 2026-04-29 08:48 484K
20260429T06Z_MSC_RDPS_SpecificHumidity_AGL-2m_RLatLon0.09_PT027H.grib2 2026-04-29 08:48 648K
20260429T06Z_MSC_RDPS_SpecificHumidity_AGL-40m_RLatLon0.09_PT027H.grib2 2026-04-29 08:48 488K
20260429T06Z_MSC_RDPS_SpecificHumidity_AGL-80m_RLatLon0.09_PT027H.grib2 2026-04-29 08:48 485K
20260429T06Z_MSC_RDPS_SpecificHumidity_IsbL-0001_RLatLon0.09_PT027H.grib2 2026-04-29 08:48 339K
20260429T06Z_MSC_RDPS_SpecificHumidity_IsbL-0005_RLatLon0.09_PT027H.grib2 2026-04-29 08:48 361K
20260429T06Z_MSC_RDPS_SpecificHumidity_IsbL-0010_RLatLon0.09_PT027H.grib2 2026-04-29 08:48 399K
20260429T06Z_MSC_RDPS_SpecificHumidity_IsbL-0020_RLatLon0.09_PT027H.grib2 2026-04-29 08:48 390K
20260429T06Z_MSC_RDPS_SpecificHumidity_IsbL-0030_RLatLon0.09_PT027H.grib2 2026-04-29 08:48 371K
20260429T06Z_MSC_RDPS_SpecificHumidity_IsbL-0050_RLatLon0.09_PT027H.grib2 2026-04-29 08:48 462K
20260429T06Z_MSC_RDPS_SpecificHumidity_IsbL-0100_RLatLon0.09_PT027H.grib2 2026-04-29 08:48 354K
20260429T06Z_MSC_RDPS_SpecificHumidity_IsbL-0150_RLatLon0.09_PT027H.grib2 2026-04-29 08:48 455K
20260429T06Z_MSC_RDPS_SpecificHumidity_IsbL-0175_RLatLon0.09_PT027H.grib2 2026-04-29 08:48 536K
20260429T06Z_MSC_RDPS_SpecificHumidity_IsbL-0200_RLatLon0.09_PT027H.grib2 2026-04-29 08:48 448K
20260429T06Z_MSC_RDPS_SpecificHumidity_IsbL-0225_RLatLon0.09_PT027H.grib2 2026-04-29 08:48 564K
20260429T06Z_MSC_RDPS_SpecificHumidity_IsbL-0250_RLatLon0.09_PT027H.grib2 2026-04-29 08:48 565K
20260429T06Z_MSC_RDPS_SpecificHumidity_IsbL-0275_RLatLon0.09_PT027H.grib2 2026-04-29 08:48 478K
20260429T06Z_MSC_RDPS_SpecificHumidity_IsbL-0300_RLatLon0.09_PT027H.grib2 2026-04-29 08:48 579K
20260429T06Z_MSC_RDPS_SpecificHumidity_IsbL-0350_RLatLon0.09_PT027H.grib2 2026-04-29 08:48 542K
20260429T06Z_MSC_RDPS_SpecificHumidity_IsbL-0400_RLatLon0.09_PT027H.grib2 2026-04-29 08:48 520K
20260429T06Z_MSC_RDPS_SpecificHumidity_IsbL-0450_RLatLon0.09_PT027H.grib2 2026-04-29 08:48 572K
20260429T06Z_MSC_RDPS_SpecificHumidity_IsbL-0500_RLatLon0.09_PT027H.grib2 2026-04-29 08:48 509K
20260429T06Z_MSC_RDPS_SpecificHumidity_IsbL-0550_RLatLon0.09_PT027H.grib2 2026-04-29 08:48 565K
20260429T06Z_MSC_RDPS_SpecificHumidity_IsbL-0600_RLatLon0.09_PT027H.grib2 2026-04-29 08:48 636K
20260429T06Z_MSC_RDPS_SpecificHumidity_IsbL-0650_RLatLon0.09_PT027H.grib2 2026-04-29 08:48 557K
20260429T06Z_MSC_RDPS_SpecificHumidity_IsbL-0700_RLatLon0.09_PT027H.grib2 2026-04-29 08:48 597K
20260429T06Z_MSC_RDPS_SpecificHumidity_IsbL-0750_RLatLon0.09_PT027H.grib2 2026-04-29 08:48 649K
20260429T06Z_MSC_RDPS_SpecificHumidity_IsbL-0800_RLatLon0.09_PT027H.grib2 2026-04-29 08:48 720K
20260429T06Z_MSC_RDPS_SpecificHumidity_IsbL-0850_RLatLon0.09_PT027H.grib2 2026-04-29 08:48 790K
20260429T06Z_MSC_RDPS_SpecificHumidity_IsbL-0875_RLatLon0.09_PT027H.grib2 2026-04-29 08:48 817K
20260429T06Z_MSC_RDPS_SpecificHumidity_IsbL-0900_RLatLon0.09_PT027H.grib2 2026-04-29 08:48 831K
20260429T06Z_MSC_RDPS_SpecificHumidity_IsbL-0925_RLatLon0.09_PT027H.grib2 2026-04-29 08:48 832K
20260429T06Z_MSC_RDPS_SpecificHumidity_IsbL-0950_RLatLon0.09_PT027H.grib2 2026-04-29 08:48 835K
20260429T06Z_MSC_RDPS_SpecificHumidity_IsbL-0970_RLatLon0.09_PT027H.grib2 2026-04-29 08:48 826K
20260429T06Z_MSC_RDPS_SpecificHumidity_IsbL-0985_RLatLon0.09_PT027H.grib2 2026-04-29 08:48 814K
20260429T06Z_MSC_RDPS_SpecificHumidity_IsbL-1000_RLatLon0.09_PT027H.grib2 2026-04-29 08:48 665K
20260429T06Z_MSC_RDPS_SpecificHumidity_IsbL-1015_RLatLon0.09_PT027H.grib2 2026-04-29 08:48 657K
20260429T06Z_MSC_RDPS_SpecificHumidity_Sfc_RLatLon0.09_PT027H.grib2 2026-04-29 08:48 290K
20260429T06Z_MSC_RDPS_StormRelativeHelicity_EtaL-10000_RLatLon0.09_PT027H.grib2 2026-04-29 08:48 1.1M
20260429T06Z_MSC_RDPS_StormSeverityIndex_EtaL-10000_RLatLon0.09_PT027H.grib2 2026-04-29 08:48 1.2M
20260429T06Z_MSC_RDPS_Thickness_IsbL-0850to0700_RLatLon0.09_PT027H.grib2 2026-04-29 08:48 178K
20260429T06Z_MSC_RDPS_Thickness_IsbL-1000to0500_RLatLon0.09_PT027H.grib2 2026-04-29 08:48 198K
20260429T06Z_MSC_RDPS_Thickness_IsbL-1000to0850_RLatLon0.09_PT027H.grib2 2026-04-29 08:48 259K
20260429T06Z_MSC_RDPS_TotalCloudCover_Sfc_RLatLon0.09_PT027H.grib2 2026-04-29 08:48 658K
20260429T06Z_MSC_RDPS_TotalTotalsIndex_Sfc_RLatLon0.09_PT027H.grib2 2026-04-29 08:48 2.3M
20260429T06Z_MSC_RDPS_UVIndex-ClearSky_Sfc_RLatLon0.09_PT027H.grib2 2026-04-29 08:48 111K
20260429T06Z_MSC_RDPS_UVIndex_Sfc_RLatLon0.09_PT027H.grib2 2026-04-29 08:48 194K
20260429T06Z_MSC_RDPS_UpwardLongwaveRadiationFlux_NTAtm_RLatLon0.09_PT027H.grib2 2026-04-29 08:48 492K
20260429T06Z_MSC_RDPS_UpwardShortwaveRadiationFlux_NTAtm_RLatLon0.09_PT027H.grib2 2026-04-29 08:48 157K
20260429T06Z_MSC_RDPS_VerticalVelocity_IsbL-0250_RLatLon0.09_PT027H.grib2 2026-04-29 08:48 559K
20260429T06Z_MSC_RDPS_VerticalVelocity_IsbL-0500_RLatLon0.09_PT027H.grib2 2026-04-29 08:48 545K
20260429T06Z_MSC_RDPS_VerticalVelocity_IsbL-0700_RLatLon0.09_PT027H.grib2 2026-04-29 08:48 587K
20260429T06Z_MSC_RDPS_VerticalVelocity_IsbL-0850_RLatLon0.09_PT027H.grib2 2026-04-29 08:48 639K
20260429T06Z_MSC_RDPS_VerticalWindShear_EtaL-6500_RLatLon0.09_PT027H.grib2 2026-04-29 08:48 1.2M
20260429T06Z_MSC_RDPS_WindChill_Sfc_RLatLon0.09_PT027H.grib2 2026-04-29 08:48 1.1M
20260429T06Z_MSC_RDPS_WindDir_AGL-10m_RLatLon0.09_PT027H.grib2 2026-04-29 08:48 1.0M
20260429T06Z_MSC_RDPS_WindDir_AGL-120m_RLatLon0.09_PT027H.grib2 2026-04-29 08:48 614K
20260429T06Z_MSC_RDPS_WindDir_AGL-40m_RLatLon0.09_PT027H.grib2 2026-04-29 08:48 644K
20260429T06Z_MSC_RDPS_WindDir_AGL-80m_RLatLon0.09_PT027H.grib2 2026-04-29 08:48 626K
20260429T06Z_MSC_RDPS_WindDir_IsbL-0001_RLatLon0.09_PT027H.grib2 2026-04-29 08:48 302K
20260429T06Z_MSC_RDPS_WindDir_IsbL-0005_RLatLon0.09_PT027H.grib2 2026-04-29 08:48 362K
20260429T06Z_MSC_RDPS_WindDir_IsbL-0010_RLatLon0.09_PT027H.grib2 2026-04-29 08:48 377K
20260429T06Z_MSC_RDPS_WindDir_IsbL-0020_RLatLon0.09_PT027H.grib2 2026-04-29 08:48 424K
20260429T06Z_MSC_RDPS_WindDir_IsbL-0030_RLatLon0.09_PT027H.grib2 2026-04-29 08:48 423K
20260429T06Z_MSC_RDPS_WindDir_IsbL-0050_RLatLon0.09_PT027H.grib2 2026-04-29 08:48 431K
20260429T06Z_MSC_RDPS_WindDir_IsbL-0100_RLatLon0.09_PT027H.grib2 2026-04-29 08:48 439K
20260429T06Z_MSC_RDPS_WindDir_IsbL-0150_RLatLon0.09_PT027H.grib2 2026-04-29 08:48 432K
20260429T06Z_MSC_RDPS_WindDir_IsbL-0175_RLatLon0.09_PT027H.grib2 2026-04-29 08:48 450K
20260429T06Z_MSC_RDPS_WindDir_IsbL-0200_RLatLon0.09_PT027H.grib2 2026-04-29 08:48 460K
20260429T06Z_MSC_RDPS_WindDir_IsbL-0225_RLatLon0.09_PT027H.grib2 2026-04-29 08:48 464K
20260429T06Z_MSC_RDPS_WindDir_IsbL-0250_RLatLon0.09_PT027H.grib2 2026-04-29 08:48 466K
20260429T06Z_MSC_RDPS_WindDir_IsbL-0275_RLatLon0.09_PT027H.grib2 2026-04-29 08:48 489K
20260429T06Z_MSC_RDPS_WindDir_IsbL-0300_RLatLon0.09_PT027H.grib2 2026-04-29 08:48 484K
20260429T06Z_MSC_RDPS_WindDir_IsbL-0350_RLatLon0.09_PT027H.grib2 2026-04-29 08:48 502K
20260429T06Z_MSC_RDPS_WindDir_IsbL-0400_RLatLon0.09_PT027H.grib2 2026-04-29 08:48 516K
20260429T06Z_MSC_RDPS_WindDir_IsbL-0450_RLatLon0.09_PT027H.grib2 2026-04-29 08:48 524K
20260429T06Z_MSC_RDPS_WindDir_IsbL-0500_RLatLon0.09_PT027H.grib2 2026-04-29 08:48 540K
20260429T06Z_MSC_RDPS_WindDir_IsbL-0550_RLatLon0.09_PT027H.grib2 2026-04-29 08:48 562K
20260429T06Z_MSC_RDPS_WindDir_IsbL-0600_RLatLon0.09_PT027H.grib2 2026-04-29 08:48 597K
20260429T06Z_MSC_RDPS_WindDir_IsbL-0650_RLatLon0.09_PT027H.grib2 2026-04-29 08:48 643K
20260429T06Z_MSC_RDPS_WindDir_IsbL-0700_RLatLon0.09_PT027H.grib2 2026-04-29 08:48 686K
20260429T06Z_MSC_RDPS_WindDir_IsbL-0750_RLatLon0.09_PT027H.grib2 2026-04-29 08:48 732K
20260429T06Z_MSC_RDPS_WindDir_IsbL-0800_RLatLon0.09_PT027H.grib2 2026-04-29 08:48 789K
20260429T06Z_MSC_RDPS_WindDir_IsbL-0850_RLatLon0.09_PT027H.grib2 2026-04-29 08:48 862K
20260429T06Z_MSC_RDPS_WindDir_IsbL-0875_RLatLon0.09_PT027H.grib2 2026-04-29 08:48 891K
20260429T06Z_MSC_RDPS_WindDir_IsbL-0900_RLatLon0.09_PT027H.grib2 2026-04-29 08:48 913K
20260429T06Z_MSC_RDPS_WindDir_IsbL-0925_RLatLon0.09_PT027H.grib2 2026-04-29 08:48 923K
20260429T06Z_MSC_RDPS_WindDir_IsbL-0950_RLatLon0.09_PT027H.grib2 2026-04-29 08:48 924K
20260429T06Z_MSC_RDPS_WindDir_IsbL-0970_RLatLon0.09_PT027H.grib2 2026-04-29 08:48 933K
20260429T06Z_MSC_RDPS_WindDir_IsbL-0985_RLatLon0.09_PT027H.grib2 2026-04-29 08:48 941K
20260429T06Z_MSC_RDPS_WindDir_IsbL-1000_RLatLon0.09_PT027H.grib2 2026-04-29 08:48 955K
20260429T06Z_MSC_RDPS_WindDir_IsbL-1015_RLatLon0.09_PT027H.grib2 2026-04-29 08:48 970K
20260429T06Z_MSC_RDPS_WindGust-Max_AGL-10m_RLatLon0.09_PT027H.grib2 2026-04-29 08:48 1.0M
20260429T06Z_MSC_RDPS_WindGust-Min_AGL-10m_RLatLon0.09_PT027H.grib2 2026-04-29 08:48 967K
20260429T06Z_MSC_RDPS_WindGust_AGL-10m_RLatLon0.09_PT027H.grib2 2026-04-29 08:48 1.0M
20260429T06Z_MSC_RDPS_WindSpeed_AGL-10m_RLatLon0.09_PT027H.grib2 2026-04-29 08:48 837K
20260429T06Z_MSC_RDPS_WindSpeed_AGL-120m_RLatLon0.09_PT027H.grib2 2026-04-29 08:48 539K
20260429T06Z_MSC_RDPS_WindSpeed_AGL-40m_RLatLon0.09_PT027H.grib2 2026-04-29 08:48 540K
20260429T06Z_MSC_RDPS_WindSpeed_AGL-80m_RLatLon0.09_PT027H.grib2 2026-04-29 08:48 539K
20260429T06Z_MSC_RDPS_WindSpeed_IsbL-0001_RLatLon0.09_PT027H.grib2 2026-04-29 08:48 333K
20260429T06Z_MSC_RDPS_WindSpeed_IsbL-0005_RLatLon0.09_PT027H.grib2 2026-04-29 08:48 298K
20260429T06Z_MSC_RDPS_WindSpeed_IsbL-0010_RLatLon0.09_PT027H.grib2 2026-04-29 08:48 405K
20260429T06Z_MSC_RDPS_WindSpeed_IsbL-0020_RLatLon0.09_PT027H.grib2 2026-04-29 08:48 327K
20260429T06Z_MSC_RDPS_WindSpeed_IsbL-0030_RLatLon0.09_PT027H.grib2 2026-04-29 08:48 326K
20260429T06Z_MSC_RDPS_WindSpeed_IsbL-0050_RLatLon0.09_PT027H.grib2 2026-04-29 08:48 354K
20260429T06Z_MSC_RDPS_WindSpeed_IsbL-0100_RLatLon0.09_PT027H.grib2 2026-04-29 08:48 483K
20260429T06Z_MSC_RDPS_WindSpeed_IsbL-0150_RLatLon0.09_PT027H.grib2 2026-04-29 08:48 386K
20260429T06Z_MSC_RDPS_WindSpeed_IsbL-0175_RLatLon0.09_PT027H.grib2 2026-04-29 08:48 433K
20260429T06Z_MSC_RDPS_WindSpeed_IsbL-0200_RLatLon0.09_PT027H.grib2 2026-04-29 08:48 449K
20260429T06Z_MSC_RDPS_WindSpeed_IsbL-0225_RLatLon0.09_PT027H.grib2 2026-04-29 08:48 457K
20260429T06Z_MSC_RDPS_WindSpeed_IsbL-0250_RLatLon0.09_PT027H.grib2 2026-04-29 08:48 460K
20260429T06Z_MSC_RDPS_WindSpeed_IsbL-0275_RLatLon0.09_PT027H.grib2 2026-04-29 08:48 478K
20260429T06Z_MSC_RDPS_WindSpeed_IsbL-0300_RLatLon0.09_PT027H.grib2 2026-04-29 08:48 472K
20260429T06Z_MSC_RDPS_WindSpeed_IsbL-0350_RLatLon0.09_PT027H.grib2 2026-04-29 08:48 484K
20260429T06Z_MSC_RDPS_WindSpeed_IsbL-0400_RLatLon0.09_PT027H.grib2 2026-04-29 08:48 467K
20260429T06Z_MSC_RDPS_WindSpeed_IsbL-0450_RLatLon0.09_PT027H.grib2 2026-04-29 08:48 466K
20260429T06Z_MSC_RDPS_WindSpeed_IsbL-0500_RLatLon0.09_PT027H.grib2 2026-04-29 08:48 468K
20260429T06Z_MSC_RDPS_WindSpeed_IsbL-0550_RLatLon0.09_PT027H.grib2 2026-04-29 08:48 468K
20260429T06Z_MSC_RDPS_WindSpeed_IsbL-0600_RLatLon0.09_PT027H.grib2 2026-04-29 08:48 594K
20260429T06Z_MSC_RDPS_WindSpeed_IsbL-0650_RLatLon0.09_PT027H.grib2 2026-04-29 08:48 614K
20260429T06Z_MSC_RDPS_WindSpeed_IsbL-0700_RLatLon0.09_PT027H.grib2 2026-04-29 08:48 683K
20260429T06Z_MSC_RDPS_WindSpeed_IsbL-0750_RLatLon0.09_PT027H.grib2 2026-04-29 08:48 711K
20260429T06Z_MSC_RDPS_WindSpeed_IsbL-0800_RLatLon0.09_PT027H.grib2 2026-04-29 08:48 753K
20260429T06Z_MSC_RDPS_WindSpeed_IsbL-0850_RLatLon0.09_PT027H.grib2 2026-04-29 08:48 810K
20260429T06Z_MSC_RDPS_WindSpeed_IsbL-0875_RLatLon0.09_PT027H.grib2 2026-04-29 08:48 830K
20260429T06Z_MSC_RDPS_WindSpeed_IsbL-0900_RLatLon0.09_PT027H.grib2 2026-04-29 08:48 847K
20260429T06Z_MSC_RDPS_WindSpeed_IsbL-0925_RLatLon0.09_PT027H.grib2 2026-04-29 08:48 859K
20260429T06Z_MSC_RDPS_WindSpeed_IsbL-0950_RLatLon0.09_PT027H.grib2 2026-04-29 08:48 861K
20260429T06Z_MSC_RDPS_WindSpeed_IsbL-0970_RLatLon0.09_PT027H.grib2 2026-04-29 08:48 861K
20260429T06Z_MSC_RDPS_WindSpeed_IsbL-0985_RLatLon0.09_PT027H.grib2 2026-04-29 08:48 851K
20260429T06Z_MSC_RDPS_WindSpeed_IsbL-1000_RLatLon0.09_PT027H.grib2 2026-04-29 08:48 845K
20260429T06Z_MSC_RDPS_WindSpeed_IsbL-1015_RLatLon0.09_PT027H.grib2 2026-04-29 08:48 836K
20260429T06Z_MSC_RDPS_WindU_AGL-10m_RLatLon0.09_PT027H.grib2 2026-04-29 08:48 428K
20260429T06Z_MSC_RDPS_WindU_AGL-120m_RLatLon0.09_PT027H.grib2 2026-04-29 08:48 535K
20260429T06Z_MSC_RDPS_WindU_AGL-40m_RLatLon0.09_PT027H.grib2 2026-04-29 08:48 537K
20260429T06Z_MSC_RDPS_WindU_AGL-80m_RLatLon0.09_PT027H.grib2 2026-04-29 08:48 536K
20260429T06Z_MSC_RDPS_WindU_IsbL-0001_RLatLon0.09_PT027H.grib2 2026-04-29 08:48 242K
20260429T06Z_MSC_RDPS_WindU_IsbL-0005_RLatLon0.09_PT027H.grib2 2026-04-29 08:48 333K
20260429T06Z_MSC_RDPS_WindU_IsbL-0010_RLatLon0.09_PT027H.grib2 2026-04-29 08:48 301K
20260429T06Z_MSC_RDPS_WindU_IsbL-0020_RLatLon0.09_PT027H.grib2 2026-04-29 08:48 354K
20260429T06Z_MSC_RDPS_WindU_IsbL-0030_RLatLon0.09_PT027H.grib2 2026-04-29 08:48 317K
20260429T06Z_MSC_RDPS_WindU_IsbL-0050_RLatLon0.09_PT027H.grib2 2026-04-29 08:48 381K
20260429T06Z_MSC_RDPS_WindU_IsbL-0100_RLatLon0.09_PT027H.grib2 2026-04-29 08:48 439K
20260429T06Z_MSC_RDPS_WindU_IsbL-0150_RLatLon0.09_PT027H.grib2 2026-04-29 08:48 401K
20260429T06Z_MSC_RDPS_WindU_IsbL-0175_RLatLon0.09_PT027H.grib2 2026-04-29 08:48 426K
20260429T06Z_MSC_RDPS_WindU_IsbL-0200_RLatLon0.09_PT027H.grib2 2026-04-29 08:48 341K
20260429T06Z_MSC_RDPS_WindU_IsbL-0225_RLatLon0.09_PT027H.grib2 2026-04-29 08:48 347K
20260429T06Z_MSC_RDPS_WindU_IsbL-0250_RLatLon0.09_PT027H.grib2 2026-04-29 08:48 349K
20260429T06Z_MSC_RDPS_WindU_IsbL-0275_RLatLon0.09_PT027H.grib2 2026-04-29 08:48 364K
20260429T06Z_MSC_RDPS_WindU_IsbL-0300_RLatLon0.09_PT027H.grib2 2026-04-29 08:48 358K
20260429T06Z_MSC_RDPS_WindU_IsbL-0350_RLatLon0.09_PT027H.grib2 2026-04-29 08:48 472K
20260429T06Z_MSC_RDPS_WindU_IsbL-0400_RLatLon0.09_PT027H.grib2 2026-04-29 08:48 473K
20260429T06Z_MSC_RDPS_WindU_IsbL-0450_RLatLon0.09_PT027H.grib2 2026-04-29 08:48 472K
20260429T06Z_MSC_RDPS_WindU_IsbL-0500_RLatLon0.09_PT027H.grib2 2026-04-29 08:48 473K
20260429T06Z_MSC_RDPS_WindU_IsbL-0550_RLatLon0.09_PT027H.grib2 2026-04-29 08:48 456K
20260429T06Z_MSC_RDPS_WindU_IsbL-0600_RLatLon0.09_PT027H.grib2 2026-04-29 08:48 464K
20260429T06Z_MSC_RDPS_WindU_IsbL-0650_RLatLon0.09_PT027H.grib2 2026-04-29 08:48 483K
20260429T06Z_MSC_RDPS_WindU_IsbL-0700_RLatLon0.09_PT027H.grib2 2026-04-29 08:48 506K
20260429T06Z_MSC_RDPS_WindU_IsbL-0750_RLatLon0.09_PT027H.grib2 2026-04-29 08:48 657K
20260429T06Z_MSC_RDPS_WindU_IsbL-0800_RLatLon0.09_PT027H.grib2 2026-04-29 08:48 569K
20260429T06Z_MSC_RDPS_WindU_IsbL-0850_RLatLon0.09_PT027H.grib2 2026-04-29 08:48 752K
20260429T06Z_MSC_RDPS_WindU_IsbL-0875_RLatLon0.09_PT027H.grib2 2026-04-29 08:48 635K
20260429T06Z_MSC_RDPS_WindU_IsbL-0900_RLatLon0.09_PT027H.grib2 2026-04-29 08:48 649K
20260429T06Z_MSC_RDPS_WindU_IsbL-0925_RLatLon0.09_PT027H.grib2 2026-04-29 08:48 656K
20260429T06Z_MSC_RDPS_WindU_IsbL-0950_RLatLon0.09_PT027H.grib2 2026-04-29 08:48 654K
20260429T06Z_MSC_RDPS_WindU_IsbL-0970_RLatLon0.09_PT027H.grib2 2026-04-29 08:48 793K
20260429T06Z_MSC_RDPS_WindU_IsbL-0985_RLatLon0.09_PT027H.grib2 2026-04-29 08:48 787K
20260429T06Z_MSC_RDPS_WindU_IsbL-1000_RLatLon0.09_PT027H.grib2 2026-04-29 08:48 829K
20260429T06Z_MSC_RDPS_WindU_IsbL-1015_RLatLon0.09_PT027H.grib2 2026-04-29 08:48 822K
20260429T06Z_MSC_RDPS_WindV_AGL-10m_RLatLon0.09_PT027H.grib2 2026-04-29 08:48 429K
20260429T06Z_MSC_RDPS_WindV_AGL-120m_RLatLon0.09_PT027H.grib2 2026-04-29 08:48 534K
20260429T06Z_MSC_RDPS_WindV_AGL-40m_RLatLon0.09_PT027H.grib2 2026-04-29 08:48 535K
20260429T06Z_MSC_RDPS_WindV_AGL-80m_RLatLon0.09_PT027H.grib2 2026-04-29 08:48 534K
20260429T06Z_MSC_RDPS_WindV_IsbL-0001_RLatLon0.09_PT027H.grib2 2026-04-29 08:48 245K
20260429T06Z_MSC_RDPS_WindV_IsbL-0005_RLatLon0.09_PT027H.grib2 2026-04-29 08:48 291K
20260429T06Z_MSC_RDPS_WindV_IsbL-0010_RLatLon0.09_PT027H.grib2 2026-04-29 08:48 305K
20260429T06Z_MSC_RDPS_WindV_IsbL-0020_RLatLon0.09_PT027H.grib2 2026-04-29 08:48 319K
20260429T06Z_MSC_RDPS_WindV_IsbL-0030_RLatLon0.09_PT027H.grib2 2026-04-29 08:48 321K
20260429T06Z_MSC_RDPS_WindV_IsbL-0050_RLatLon0.09_PT027H.grib2 2026-04-29 08:48 348K
20260429T06Z_MSC_RDPS_WindV_IsbL-0100_RLatLon0.09_PT027H.grib2 2026-04-29 08:48 434K
20260429T06Z_MSC_RDPS_WindV_IsbL-0150_RLatLon0.09_PT027H.grib2 2026-04-29 08:48 400K
20260429T06Z_MSC_RDPS_WindV_IsbL-0175_RLatLon0.09_PT027H.grib2 2026-04-29 08:48 424K
20260429T06Z_MSC_RDPS_WindV_IsbL-0200_RLatLon0.09_PT027H.grib2 2026-04-29 08:48 338K
20260429T06Z_MSC_RDPS_WindV_IsbL-0225_RLatLon0.09_PT027H.grib2 2026-04-29 08:48 346K
20260429T06Z_MSC_RDPS_WindV_IsbL-0250_RLatLon0.09_PT027H.grib2 2026-04-29 08:48 348K
20260429T06Z_MSC_RDPS_WindV_IsbL-0275_RLatLon0.09_PT027H.grib2 2026-04-29 08:48 386K
20260429T06Z_MSC_RDPS_WindV_IsbL-0300_RLatLon0.09_PT027H.grib2 2026-04-29 08:48 356K
20260429T06Z_MSC_RDPS_WindV_IsbL-0350_RLatLon0.09_PT027H.grib2 2026-04-29 08:48 365K
20260429T06Z_MSC_RDPS_WindV_IsbL-0400_RLatLon0.09_PT027H.grib2 2026-04-29 08:48 365K
20260429T06Z_MSC_RDPS_WindV_IsbL-0450_RLatLon0.09_PT027H.grib2 2026-04-29 08:48 470K
20260429T06Z_MSC_RDPS_WindV_IsbL-0500_RLatLon0.09_PT027H.grib2 2026-04-29 08:48 472K
20260429T06Z_MSC_RDPS_WindV_IsbL-0550_RLatLon0.09_PT027H.grib2 2026-04-29 08:48 471K
20260429T06Z_MSC_RDPS_WindV_IsbL-0600_RLatLon0.09_PT027H.grib2 2026-04-29 08:48 479K
20260429T06Z_MSC_RDPS_WindV_IsbL-0650_RLatLon0.09_PT027H.grib2 2026-04-29 08:48 481K
20260429T06Z_MSC_RDPS_WindV_IsbL-0700_RLatLon0.09_PT027H.grib2 2026-04-29 08:48 502K
20260429T06Z_MSC_RDPS_WindV_IsbL-0750_RLatLon0.09_PT027H.grib2 2026-04-29 08:48 527K
20260429T06Z_MSC_RDPS_WindV_IsbL-0800_RLatLon0.09_PT027H.grib2 2026-04-29 08:48 565K
20260429T06Z_MSC_RDPS_WindV_IsbL-0850_RLatLon0.09_PT027H.grib2 2026-04-29 08:48 749K
20260429T06Z_MSC_RDPS_WindV_IsbL-0875_RLatLon0.09_PT027H.grib2 2026-04-29 08:48 633K
20260429T06Z_MSC_RDPS_WindV_IsbL-0900_RLatLon0.09_PT027H.grib2 2026-04-29 08:48 647K
20260429T06Z_MSC_RDPS_WindV_IsbL-0925_RLatLon0.09_PT027H.grib2 2026-04-29 08:48 796K
20260429T06Z_MSC_RDPS_WindV_IsbL-0950_RLatLon0.09_PT027H.grib2 2026-04-29 08:48 794K
20260429T06Z_MSC_RDPS_WindV_IsbL-0970_RLatLon0.09_PT027H.grib2 2026-04-29 08:48 793K
20260429T06Z_MSC_RDPS_WindV_IsbL-0985_RLatLon0.09_PT027H.grib2 2026-04-29 08:48 834K
20260429T06Z_MSC_RDPS_WindV_IsbL-1000_RLatLon0.09_PT027H.grib2 2026-04-29 08:48 827K
20260429T06Z_MSC_RDPS_WindV_IsbL-1015_RLatLon0.09_PT027H.grib2 2026-04-29 08:48 820K